Weather History for KP28 - October, 2013

Change the Weather History Date:

Friday, October 4, 2013

  Actual Average Record
Temperature  
Mean Temperature 71 °F 64 °F  
Max Temperature 90 °F 76 °F 99 °F (1954)
Min Temperature 52 °F 51 °F 32 °F (1902)
Degree Days  
Heating Degree Days 0 4  
Month to date heating degree days 0 16  
Since 1 July heating degree days 10 50  
Cooling Degree Days 6 3  
Month to date cooling degree days 35 12  
Year to date cooling degree days 1776 1743  
Growing Degree Days 24 (Base 50)    
Moisture  
Dew Point 54 °F    
Average Humidity 50    
Maximum Humidity 73    
Minimum Humidity 26    
Precipitation  
Precipitation 0.00 in 0.09 in 1.06 in (1998)
Month to date precipitation 0.00 0.35  
Year to date precipitation 22.73 22.80  
Snow  
Snow 0.00 in 0.00 in - ()
Month to date snowfall 0.0 0.0  
Since 1 July snowfall 0.0 0.0  
Since 1 September snowfall 0.0 0.0  
Snow Depth 0.00 in    
Sea Level Pressure  
Sea Level Pressure 29.72 in    
Wind  
Wind Speed 17 mph (SSW)    
Max Wind Speed 29 mph    
Max Gust Speed 39 mph    
T = Trace of Precipitation, MM = Missing Value Source: NWS Daily Summary

Daily Weather History Graph

Daily Weather History Graph

Search for Another Location

Airport or City:

Trip Planner

Search our weather history database for the weather conditions in past years. The results will help you decide how hot, cold, wet, or windy it might be!

Date:

Astronomy

Oct. 04, 2013 Rise Set
Actual Time 7:32 AM CDT 7:12 PM CDT
Civil Twilight 7:06 AM CDT 7:38 PM CDT
Nautical Twilight 6:36 AM CDT 8:08 PM CDT
Astronomical Twilight 6:05 AM CDT 8:38 PM CDT
Moon 7:09 AM CDT (10/4) 6:56 PM CDT (10/4)
Length of Visible Light 12h 32m
Length of Day
11h 40m
Waning Crescent, 0% of the Moon is Illuminated
Oct 4
Waning Crescent
Oct 4
New
Oct 11
First Quarter
Oct 18
Full
Oct 26
Last Quarter

Hourly Weather History & Observations

Time (CDT) Temp. Heat Index Dew Point Humidity Pressure Visibility Wind Dir Wind Speed Gust Speed Precip Events Conditions
12:56 AM 75.9 °F - 64.0 °F 67% 29.65 in - South 15.0 mph 24.2 mph N/A   Unknown
1:56 AM 75.9 °F - 64.0 °F 67% 29.65 in - South 12.7 mph 20.7 mph N/A   Unknown
2:56 AM 75.0 °F - 64.0 °F 69% 29.65 in - South 12.7 mph - N/A   Unknown
3:56 AM 75.0 °F - 63.0 °F 66% 29.64 in - South 17.3 mph - N/A   Unknown
4:56 AM 73.9 °F - 63.0 °F 68% 29.63 in - South 16.1 mph 25.3 mph N/A   Unknown
5:56 AM 73.0 °F - 63.0 °F 71% 29.63 in - South 12.7 mph 24.2 mph N/A   Unknown
6:56 AM 73.0 °F - 63.0 °F 71% 29.65 in - South 11.5 mph 20.7 mph N/A   Unknown
7:56 AM 72.0 °F - 63.0 °F 73% 29.65 in - South 15.0 mph - N/A   Unknown
8:56 AM 73.0 °F - 63.0 °F 71% 29.67 in - South 16.1 mph - N/A   Unknown
9:56 AM 78.1 °F - 64.0 °F 62% 29.67 in - South 25.3 mph 36.8 mph N/A   Unknown
10:56 AM 80.1 °F 81.5 °F 63.0 °F 56% 29.67 in - South 25.3 mph 34.5 mph N/A   Unknown
11:56 AM 82.9 °F 83.7 °F 62.1 °F 49% 29.68 in - South 21.9 mph 31.1 mph N/A   Unknown
12:56 PM 86.0 °F 86.1 °F 61.0 °F 43% 29.67 in - SSW 20.7 mph 31.1 mph N/A   Unknown
1:56 PM 88.0 °F 86.9 °F 57.9 °F 36% 29.67 in - SSW 15.0 mph 29.9 mph N/A   Unknown
2:56 PM 90.0 °F 88.8 °F 57.9 °F 34% 29.65 in - SW 19.6 mph 26.5 mph N/A   Unknown
3:56 PM 87.1 °F - 48.0 °F 26% 29.68 in - NW 15.0 mph 21.9 mph N/A   Unknown
4:56 PM 82.9 °F - 51.1 °F 33% 29.71 in - NW 10.4 mph 23.0 mph N/A   Unknown
5:56 PM 75.9 °F - 46.0 °F 35% 29.71 in - North 21.9 mph 32.2 mph N/A   Unknown
6:56 PM 71.1 °F - 41.0 °F 34% 29.81 in - North 19.6 mph 27.6 mph N/A   Unknown
8:56 PM 62.1 °F - 36.0 °F 38% 29.92 in - North 11.5 mph 19.6 mph N/A   Unknown
9:56 PM 59.0 °F - 30.9 °F 35% 29.96 in - North 27.6 mph 35.7 mph N/A   Unknown
10:56 PM 57.0 °F - 32.0 °F 39% 30.00 in - NNW 19.6 mph 28.8 mph N/A   Unknown
11:56 PM 54.0 °F - 28.9 °F 38% 30.01 in - North 26.5 mph 36.8 mph N/A   Unknown